Weather in Tugiyany

Russia / Khanty-Mansi Autonomous Okrug — Yugra     63°33′25″N   65°48′31″E
temp.,
°C
wind,
m/s
gust,
m/s
humid.,
%
clouds,
%
prec.,
mm/h
press.,
hPa
HPBL,
m
24 january, mon
mon2423:00−15ssw2496100 0.0 103256
02:00−17s239899 0.0 103134
05:00−17ssw35975 0.0 103064
08:00−18s35985 0.0 102975
11:00−15ssw3894100 0.0 1028138
14:00−10ssw3895100 0.3 1026218
17:00−9s3795100 0.7 1025209
20:00−11ssw379772 0.0 1024108
25 january, tue
tue2523:00−15ssw359847 0.1 102365
02:00−17s35965 0.0 102163
05:00−16s489617 0.0 102096
08:00−17s37968 0.0 101992
11:00−16s4109193 0.0 1017163
14:00−12s51288100 0.0 1016310
17:00−11s61390100 0.0 1015344
20:00−9s61294100 0.3 1015358
26 january, wed
wed2623:00−8s61294100 1.2 1014370
02:00−8ssw51292100 0.1 1014333
05:00−8ssw5119080 0.1 1014266
08:00−10ssw5118820 0.0 1014214
11:00−11ssw613835 0.0 1015293
14:00−10ssw61382100 0.0 1016321
17:00−10sw61486100 0.0 1017297
20:00−10sw51285100 0.0 1017246
27 january, thu
thu2723:00−13ssw4108998 0.0 1017159
02:00−14ssw4891100 0.0 1017125
05:00−16ssw3793100 0.0 101796
08:00−17s249595 0.0 101767
11:00−16s379499 0.0 1016134
14:00−13ssw3793100 0.0 1016250
17:00−11ssw2795100 0.0 1016248
20:00−11sw369594 0.4 1016272
28 january, fri
fri2823:00−15ssw259865 0.4 101669
02:00−18ssw349954 0.0 101759
05:00−19ssw359916 0.0 101860
08:00−18ssw369774 0.0 101983
11:00−14ssw3793100 0.0 1019178
14:00−12ssw3792100 0.0 1019247
17:00−17ssw2210066 0.0 102023
20:00−18ssw359937 0.0 102053